Location: Warner Observatory
(35.1353°N, 89.5455°W)
Time: 07:39:18
(UTC-06:00)

Envisat - Pass Details

Date: 27 January 2020
Orbit: 764 x 766 km, 98.1° (Epoch: 24 February)

Event Time Altitude Azimuth Distance (km) Brightness Sun altitude
Rises 18:31:06 0° 188° (S) 3,216 6.5 -14.5°
Reaches altitude 10° 18:33:35 10° 197° (SSW) 2,294 5.9 -15.0°
Maximum altitude 18:38:10 35° 263° (W) 1,230 4.8 -15.9°
Drops below altitude 10° 18:42:47 10° 328° (NNW) 2,307 5.7 -16.8°
Sets 18:45:18 0° 337° (NNW) 3,237 6.4 -17.3°
